Regional Weather Roundup
Issued by NWS Albany, NY

Home | Current Version | Previous Version | Text Only | Print | Product List | Glossary On
Versions: 1 2 3 4 5 6 7 8 9 10 11 12 13 14 15 16 17 18 19 20 21 22 23 24 25 26 27
000
ASUS41 KALY 121410
RWRALY

NEW YORK STATE HOURLY WEATHER ROUNDUP
NATIONAL WEATHER SERVICE ALBANY NY
900 AM EST TUE DEC 12 2017

NOTE: "FAIR" INDICATES FEW OR NO CLOUDS BELOW 12,000 FEET WITH NO
SIGNIFICANT WEATHER AND/OR NO OBSTRUCTIONS TO VISIBILITY.

NYZ032-033-038>043-046>054-057>066-NYZ062>081-082-084-121500-
EAST


CITY           SKY/WX    TMP DP  RH WIND       PRES   REMARKS
ALBANY         LGT SNOW  32  30  92 S8        29.59F VSB 3/4 WCI  25
GLENS FALLS    SNOW      26  25  96 CALM      29.61F VSB 1/4
POUGHKEEPSIE   LGT RAIN  37  35  92 SE3       29.61F FOG
NEWBURGH       CLOUDY    37  37 100 S7        29.62F FOG     WCI  32
MONTGOMERY     FRZ RAIN  32  31  96 N5        29.59F FOG     WCI  27
WHITE PLAINS   LGT RAIN  43  39  86 S5        29.61F
ISLIP          LGT RAIN  49  41  74 S13       29.64F
NEW YORK CITY  CLOUDY    50  39  66 S12       29.61F
CENTRAL PARK   CLOUDY    49  38  65 S9G16     29.63F
$$

NYZ005>009-017-018-044>046-055-056-121500-
CENTRAL


CITY           SKY/WX    TMP DP  RH WIND       PRES   REMARKS
FULTON         LGT SNOW  31  29  92 E6        29.48F VSB 3/4 WCI  25
SYRACUSE       LGT SNOW  29  29 100 NE8       29.49F VSB 3/4 WCI  21
ROME           HVY SNOW  30  29  96 E6        29.53F VSB 1/4 WCI  24
ELMIRA         CLOUDY    34  32  92 N3        29.47F FOG
BINGHAMTON     CLOUDY    32  29  88 S12       29.46F WCI  23
$$

NYZ026>034-041>043-087-121500-
NORTH


CITY           SKY/WX    TMP DP  RH WIND       PRES   REMARKS
WATERTOWN      SNOW      26  25  96 N6        29.49F VSB 1/4 WCI  19
FORT DRUM      NOT AVBL
OGDENSBURG     LGT SNOW  19  16  90 NE7       29.55F VSB 3/4 WCI   9
MASSENA        SNOW      17  16  95 NE12      29.61F VSB 1/2 WCI   4
SARANAC LAKE   CLOUDY    27  24  89 S7        29.47F FOG     WCI  19
PLATTSBURGH    LGT SNOW  28  25  88 S8        29.62F FOG     WCI  20
$$

NYZ001>004-010>016-019>021-085-121500-
WEST


CITY           SKY/WX    TMP DP  RH WIND       PRES   REMARKS
NIAGARA FALLS  LGT SNOW  31  25  78 W20       29.51S WCI  19
BUFFALO        LGT SNOW  30  28  92 W13       29.51S FOG     WCI  20
DUNKIRK        LGT SNOW  30  27  88 NW18G28   29.56R VSB 3/4 WCI  18
JAMESTOWN      LGT SNOW  27  25  92 NW15      29.51R FOG     WCI  15
WELLSVILLE     LGT SNOW  32  27  81 W12       29.45S WCI  23
ROCHESTER      LGT SNOW  30  30 100 SW6       29.48F FOG     WCI  24
PENN YAN       LGT SNOW  32  29  88 CALM      29.47S VSB 3/4
$$

             KEY
       WCI = WIND CHILL INDEX
       VSB = VISIBILITY
       HX  = HEAT INDEX
$$




USA.gov is the U.S. government's official web portal to all federal, state and local government web resources and services.